| time (UTC) | temp C | wind direction | speed KPH | gust KPH | rain 1hr cm | rain 24hr cm | rain mn cm | humidity % | barometer mb |
| 20260504030707 | 11 | 124 | 1.6 | 3.2 | 0.00 | 0.00 | 0.00 | 60 | 978.6 |
| 20260504030206 | 11 | 160 | 1.6 | 3.2 | 0.00 | 0.00 | 0.00 | 60 | 978.6 |
| 20260504024706 | 11 | 160 | 1.6 | 11.3 | 0.00 | 0.00 | 0.00 | 60 | 978.8 |
| 20260504024206 | 11 | 149 | 1.6 | 3.2 | 0.00 | 0.00 | 0.00 | 59 | 978.8 |
| 20260504023706 | 11 | 237 | 1.6 | 4.8 | 0.00 | 0.00 | 0.00 | 59 | 978.8 |
| 20260504023206 | 11 | 101 | 3.2 | 4.8 | 0.00 | 0.00 | 0.00 | 57 | 978.9 |
| 20260504021706 | 11 | 231 | 4.8 | 8.0 | 0.00 | 0.00 | 0.00 | 55 | 978.8 |
| 20260504021206 | 11 | 242 | 3.2 | 4.8 | 0.00 | 0.00 | 0.00 | 56 | 978.8 |
| 20260504020706 | 11 | 243 | 4.8 | 8.0 | 0.00 | 0.00 | 0.00 | 55 | 978.9 |
| 20260504020206 | 11 | 224 | 3.2 | 8.0 | 0.00 | 0.00 | 0.00 | 56 | 978.9 |
| 20260504014706 | 11 | 229 | 3.2 | 8.0 | 0.00 | 0.00 | 0.00 | 56 | 978.7 |
| 20260504014206 | 11 | 230 | 4.8 | 11.3 | 0.00 | 0.00 | 0.00 | 54 | 978.7 |
| 20260504013706 | 11 | 227 | 8.0 | 14.5 | 0.00 | 0.00 | 0.00 | 58 | 978.6 |
| 20260504013206 | 11 | 166 | 1.6 | 4.8 | 0.00 | 0.00 | 0.00 | 53 | 978.3 |
| 20260504011706 | 11 | 252 | 1.6 | 4.8 | 0.00 | 0.00 | 0.00 | 50 | 978.3 |
| 20260504011206 | 12 | 5 | 1.6 | 4.8 | 0.00 | 0.00 | 0.00 | 51 | 978.3 |
| 20260504010706 | 12 | 301 | 1.6 | 4.8 | 0.00 | 0.00 | 0.00 | 50 | 978.3 |
| 20260504010206 | 12 | 347 | 1.6 | 4.8 | 0.00 | 0.00 | 0.00 | 50 | 978.3 |
| 20260504004705 | 12 | 8 | 1.6 | 3.2 | 0.00 | 0.00 | 0.00 | 50 | 978.3 |
| 20260504004206 | 12 | 318 | 1.6 | 3.2 | 0.00 | 0.00 | 0.00 | 50 | 978.3 |
| 20260504003706 | 12 | 326 | 0.0 | 4.8 | 0.00 | 0.00 | 0.00 | 50 | 978.2 |
| 20260504003206 | 12 | 357 | 1.6 | 4.8 | 0.00 | 0.00 | 0.00 | 49 | 978.2 |
| 20260504001706 | 12 | 9 | 1.6 | 4.8 | 0.00 | 0.00 | 0.00 | 49 | 978.2 |
| 20260504001206 | 12 | 264 | 0.0 | 1.6 | 0.00 | 0.00 | 0.00 | 51 | 978.2 |
| 20260504000706 | 12 | 241 | 1.6 | 3.2 | 0.00 | 0.00 | 0.00 | 50 | 978.2 |
| 20260504000206 | 12 | 35 | 1.6 | 3.2 | 0.00 | 0.00 | 0.00 | 50 | 978.2 |
| 20260503234706 | 13 | 195 | 1.6 | 3.2 | 0.00 | 0.00 | 0.00 | 51 | 978.4 |
| 20260503233706 | 13 | 210 | 3.2 | 9.7 | 0.00 | 0.00 | 0.00 | 48 | 978.4 |
| 20260503233206 | 13 | 155 | 3.2 | 4.8 | 0.00 | 0.00 | 0.00 | 48 | 978.5 |
| 20260503231206 | 13 | 153 | 6.4 | 11.3 | 0.00 | 0.00 | 0.00 | 46 | 978.6 |
| 20260503230206 | 13 | 148 | 3.2 | 12.9 | 0.00 | 0.00 | 0.00 | 48 | 978.6 |
| 20260503224706 | 13 | 196 | 6.4 | 11.3 | 0.00 | 0.00 | 0.00 | 45 | 978.6 |
| 20260503223705 | 13 | 208 | 4.8 | 11.3 | 0.00 | 0.00 | 0.00 | 46 | 978.7 |
| 20260503223206 | 13 | 236 | 4.8 | 11.3 | 0.00 | 0.00 | 0.00 | 46 | 978.8 |
| 20260503221220 | 14 | 234 | 3.2 | 3.2 | 0.00 | 0.00 | 0.00 | 46 | 978.8 |
| 20260503220722 | 14 | 234 | 3.2 | 3.2 | 0.00 | 0.00 | 0.00 | 46 | 978.8 |
| 20260503220221 | 14 | 234 | 3.2 | 3.2 | 0.00 | 0.00 | 0.00 | 46 | 978.8 |
| 20260503214721 | 14 | 234 | 3.2 | 3.2 | 0.00 | 0.00 | 0.00 | 46 | 978.8 |
| 20260503214220 | 14 | 234 | 3.2 | 3.2 | 0.00 | 0.00 | 0.00 | 47 | 978.8 |
| 20260503213721 | 14 | 234 | 3.2 | 3.2 | 0.00 | 0.00 | 0.00 | 47 | 978.8 |
| 20260503213223 | 14 | 234 | 3.2 | 3.2 | 0.00 | 0.00 | 0.00 | 47 | 978.9 |
| 20260503050705 | 2 | 234 | 3.2 | 3.2 | 0.00 | 0.05 | 0.00 | 95 | 983.0 |
| 20260503050206 | 2 | 234 | 3.2 | 3.2 | 0.00 | 0.05 | 0.00 | 95 | 983.0 |
| 20260503044705 | 2 | 234 | 3.2 | 3.2 | 0.00 | 0.05 | 0.00 | 95 | 983.0 |
| 20260503044205 | 2 | 234 | 3.2 | 3.2 | 0.00 | 0.05 | 0.00 | 95 | 983.0 |
| 20260503043705 | 2 | 234 | 3.2 | 3.2 | 0.00 | 0.05 | 0.00 | 94 | 983.0 |
| 20260503043205 | 2 | 234 | 3.2 | 3.2 | 0.00 | 0.05 | 0.00 | 94 | 983.0 |
| 20260503041705 | 2 | 234 | 3.2 | 3.2 | 0.00 | 0.05 | 0.00 | 94 | 983.0 |
| 20260503041205 | 2 | 234 | 3.2 | 3.2 | 0.00 | 0.05 | 0.00 | 93 | 983.1 |
| 20260503040205 | 2 | 234 | 3.2 | 3.2 | 0.00 | 0.05 | 0.00 | 93 | 983.0 |
| 20260503033706 | 3 | 234 | 3.2 | 3.2 | 0.00 | 0.05 | 0.03 | 92 | 983.1 |
| 20260503033205 | 3 | 234 | 3.2 | 3.2 | 0.00 | 0.05 | 0.03 | 91 | 983.1 |
| 20260503031205 | 3 | 234 | 3.2 | 3.2 | 0.00 | 0.05 | 0.03 | 89 | 983.2 |